Starlink 31980

operational
NORAD ID: 59962 Int'l Des: 2024-107 Owner: SPXS Country: US Constellation: starlink
LEOCIRCULAR

About Starlink 31980

Description loading...

Live Position

Loading 3D Globe...

Upcoming Passes

Altitude History

Altitude vs Time

uPlot chart will show altitude changes over time

Two-Line Element Set

1 59962U 24107T 25308.21058181 .00001336 00000-0 57238-4 0 9991
2 59962 53.1617 288.4659 0001295 97.8296 262.2852 15.30189847 80580
Epoch: Nov 4, 2025 • Age: 16 hours

Current Status

Altitude 475.6 km
Velocity 7.63 km/s
Sub-Earth Point 25.11°N, 79.89°E
Launch Date Jun 5, 2024
Age 1.4 years
Type internet

Technical Details

Classification Payload
Mass 730.00 kg
Dry Mass 700.00 kg
Total Mass 730.00 kg
Length 0.30 m
Diameter 4.10 m
Span 29.00 m
Shape Box + pan
Manufacturer SPXS
Bus Type Starlink V2M
Phase Status In Orbit
Owner/State SPXS/US

Large Constellations

Loading constellations...